Zurück zum Katalog

COSMOS 2193

AktivMilitärLEO
NORAD 21982·PAYLOAD·🇷🇺 Russia

Gestartet Jun 3, 1992 von Plesetsk Cosmodrome

Loading…

Nächste Überflüge (nächste 24 Stunden)

TLE

AktuellSource: Space-Track

Epoche: Sep 14, 2026, 17:14 UTC

1 21982U 92030G   26257.71810338  .00000008  00000-0  15540-3 0  9995
2 21982  74.0041 154.3437 0021272  37.4722 349.6012 12.50457708564948

Verfolge COSMOS 2193 in Echtzeit mit AllMySat

Download on the App Store